Year,Month,Day,Hour,Minute,Value (Times are PST for temperature in C)
2014,08,28,16,09,25.20
2014,08,28,16,10,25.20
2014,08,28,16,11,25.20
2014,08,28,16,12,25.10
2014,08,28,16,13,25.00
2014,08,28,16,14,24.90
2014,08,28,16,15,24.90
2014,08,28,16,16,24.80
2014,08,28,16,17,24.70
2014,08,28,16,18,24.70
2014,08,28,16,19,24.60
2014,08,28,16,20,24.50
2014,08,28,16,21,24.50
2014,08,28,16,22,24.40
2014,08,28,16,23,24.40
2014,08,28,16,24,24.30
2014,08,28,16,25,24.20
2014,08,28,16,26,24.20
2014,08,28,16,27,24.10
2014,08,28,16,28,24.00
2014,08,28,16,29,23.90
2014,08,28,16,30,23.90
2014,08,28,16,31,23.80
2014,08,28,16,32,23.70
2014,08,28,16,33,23.70
2014,08,28,16,34,23.70
2014,08,28,16,35,23.60
2014,08,28,16,36,23.50
2014,08,28,16,37,23.40
2014,08,28,16,38,23.40
2014,08,28,16,39,23.40
2014,08,28,16,40,23.40
2014,08,28,16,41,23.40
2014,08,28,16,42,23.40
2014,08,28,16,43,23.40
2014,08,28,16,44,23.30
2014,08,28,16,45,23.30
2014,08,28,16,46,23.30
2014,08,28,16,47,23.20
2014,08,28,16,48,23.20
2014,08,28,16,49,23.20
2014,08,28,16,50,23.20
2014,08,28,16,51,23.20
2014,08,28,16,52,23.20
2014,08,28,16,53,23.20
2014,08,28,16,54,23.20
2014,08,28,16,55,23.30
2014,08,28,16,56,23.30
2014,08,28,16,57,23.40
2014,08,28,16,58,23.40
2014,08,28,16,59,23.50
2014,08,28,17,00,23.50
2014,08,28,17,01,23.50
2014,08,28,17,02,23.40
2014,08,28,17,03,23.30
2014,08,28,17,04,23.20
2014,08,28,17,05,23.10
2014,08,28,17,06,23.10
2014,08,28,17,07,23.00
2014,08,28,17,08,23.00
2014,08,28,17,09,23.00
2014,08,28,17,10,23.00
2014,08,28,17,11,23.00
2014,08,28,17,12,23.00
2014,08,28,17,13,23.00
2014,08,28,17,14,23.00
2014,08,28,17,15,23.00
2014,08,28,17,16,23.00
2014,08,28,17,17,22.90
2014,08,28,17,18,22.90
2014,08,28,17,19,22.90
2014,08,28,17,20,22.90
2014,08,28,17,21,22.90
2014,08,28,17,22,22.90
2014,08,28,17,23,22.80
2014,08,28,17,24,22.80
2014,08,28,17,25,22.80
2014,08,28,17,26,22.70
2014,08,28,17,27,22.70
2014,08,28,17,28,22.70
2014,08,28,17,29,22.60
2014,08,28,17,30,22.60
2014,08,28,17,31,22.60
2014,08,28,17,32,22.60
2014,08,28,17,33,22.70
2014,08,28,17,34,22.70
2014,08,28,17,35,22.70
2014,08,28,17,36,22.70
2014,08,28,17,37,22.70
2014,08,28,17,38,22.80
2014,08,28,17,39,22.80
2014,08,28,17,40,22.80
2014,08,28,17,41,22.80
2014,08,28,17,42,22.80
2014,08,28,17,43,22.80
2014,08,28,17,44,22.80
2014,08,28,17,45,22.80
2014,08,28,17,46,22.80
2014,08,28,17,47,22.80
2014,08,28,17,48,22.80
2014,08,28,17,49,22.80
2014,08,28,17,50,22.80
2014,08,28,17,51,22.70
2014,08,28,17,52,22.70
2014,08,28,17,53,22.60
2014,08,28,17,54,22.60
2014,08,28,17,55,22.50
2014,08,28,17,56,22.50
2014,08,28,17,57,22.50
2014,08,28,17,58,22.40
2014,08,28,17,59,22.40
2014,08,28,18,00,22.40
2014,08,28,18,01,22.40
2014,08,28,18,02,22.40
2014,08,28,18,03,22.30
2014,08,28,18,04,22.30
2014,08,28,18,05,22.20
2014,08,28,18,06,22.20
2014,08,28,18,07,22.10
2014,08,28,18,08,22.10
2014,08,28,18,09,22.00
2014,08,28,18,10,22.00
2014,08,28,18,11,21.90
2014,08,28,18,12,21.90
2014,08,28,18,13,21.80
2014,08,28,18,14,21.80
2014,08,28,18,15,21.80
2014,08,28,18,16,21.70
2014,08,28,18,17,21.70
2014,08,28,18,18,21.70
2014,08,28,18,19,21.70
2014,08,28,18,20,21.70
2014,08,28,18,21,21.70
2014,08,28,18,22,21.80
2014,08,28,18,23,21.80
2014,08,28,18,24,21.80
2014,08,28,18,25,21.90
2014,08,28,18,26,21.90
2014,08,28,18,27,21.90
2014,08,28,18,28,21.90
2014,08,28,18,29,21.90
2014,08,28,18,30,21.90
2014,08,28,18,31,21.90
2014,08,28,18,32,21.90
2014,08,28,18,33,22.00
2014,08,28,18,34,22.00
2014,08,28,18,35,22.00
2014,08,28,18,36,22.00
2014,08,28,18,37,21.90
2014,08,28,18,38,21.90
2014,08,28,18,39,21.90
2014,08,28,18,40,21.90
2014,08,28,18,41,21.90
2014,08,28,18,42,21.90
2014,08,28,18,43,21.90
2014,08,28,18,44,21.90
2014,08,28,18,45,21.90
2014,08,28,18,46,21.90
2014,08,28,18,47,22.00
2014,08,28,18,48,22.00
2014,08,28,18,49,22.00
2014,08,28,18,50,22.00
2014,08,28,18,51,22.00
2014,08,28,18,52,22.00
2014,08,28,18,53,22.00
2014,08,28,18,54,22.00
2014,08,28,18,55,22.00
2014,08,28,18,56,21.90
2014,08,28,18,57,21.90
2014,08,28,18,58,21.90
2014,08,28,18,59,21.80
2014,08,28,19,00,21.80
2014,08,28,19,01,21.80
2014,08,28,19,02,21.70
2014,08,28,19,03,21.70
2014,08,28,19,04,21.70
2014,08,28,19,05,21.70
2014,08,28,19,06,21.70
2014,08,28,19,07,21.60
2014,08,28,19,08,21.60
2014,08,28,19,09,21.60
2014,08,28,19,10,21.60
2014,08,28,19,11,21.50
2014,08,28,19,12,21.50
2014,08,28,19,13,21.50
2014,08,28,19,14,21.40
2014,08,28,19,15,21.40
2014,08,28,19,16,21.40
2014,08,28,19,17,21.40
2014,08,28,19,18,21.40
2014,08,28,19,19,21.40
2014,08,28,19,20,21.40
2014,08,28,19,21,21.30
2014,08,28,19,22,21.30
2014,08,28,19,23,21.30
2014,08,28,19,24,21.30
2014,08,28,19,25,21.30
2014,08,28,19,26,21.30
2014,08,28,19,27,21.20
2014,08,28,19,28,21.20
2014,08,28,19,29,21.20
2014,08,28,19,30,21.10
2014,08,28,19,31,21.10
2014,08,28,19,32,21.10
2014,08,28,19,33,21.10
2014,08,28,19,34,21.00
2014,08,28,19,35,21.00
2014,08,28,19,36,21.00
2014,08,28,19,37,21.00
2014,08,28,19,38,20.90
2014,08,28,19,39,20.90
2014,08,28,19,40,20.90
2014,08,28,19,41,20.90
2014,08,28,19,42,20.90
2014,08,28,19,43,20.90
2014,08,28,19,44,20.90
2014,08,28,19,45,20.90
2014,08,28,19,46,20.80
2014,08,28,19,47,20.80
2014,08,28,19,48,20.80
2014,08,28,19,49,20.80
2014,08,28,19,50,20.80
2014,08,28,19,51,20.80
2014,08,28,19,52,20.80
2014,08,28,19,53,20.80
2014,08,28,19,54,20.80
2014,08,28,19,55,20.70
2014,08,28,19,56,20.70
2014,08,28,19,57,20.70
2014,08,28,19,58,20.70
2014,08,28,19,59,20.70
2014,08,28,20,00,20.70
2014,08,28,20,01,20.60
2014,08,28,20,02,20.60
2014,08,28,20,03,20.60
2014,08,28,20,04,20.60
2014,08,28,20,05,20.60
2014,08,28,20,06,20.50
2014,08,28,20,07,20.40
2014,08,28,20,08,20.40
2014,08,28,20,09,20.30
2014,08,28,20,10,20.30
2014,08,28,20,11,20.30
2014,08,28,20,12,20.30
2014,08,28,20,13,20.20
2014,08,28,20,14,20.20
2014,08,28,20,15,20.20
2014,08,28,20,16,20.20
2014,08,28,20,17,20.10
2014,08,28,20,18,20.10
2014,08,28,20,19,20.10
2014,08,28,20,20,20.10
2014,08,28,20,21,20.00
2014,08,28,20,22,20.00
2014,08,28,20,23,20.00
2014,08,28,20,24,20.00
2014,08,28,20,25,19.90
2014,08,28,20,26,19.90
2014,08,28,20,27,19.90
2014,08,28,20,28,19.90
2014,08,28,20,29,19.90
2014,08,28,20,30,19.80
2014,08,28,20,31,19.80
2014,08,28,20,32,19.80
2014,08,28,20,33,19.80
2014,08,28,20,34,19.80
2014,08,28,20,35,19.80
2014,08,28,20,36,19.70
2014,08,28,20,37,19.70
2014,08,28,20,38,19.70
2014,08,28,20,39,19.70
2014,08,28,20,40,19.70
2014,08,28,20,41,19.60
2014,08,28,20,42,19.60
2014,08,28,20,43,19.60
2014,08,28,20,44,19.60
2014,08,28,20,45,19.60
2014,08,28,20,46,19.50
2014,08,28,20,47,19.50
2014,08,28,20,48,19.50
2014,08,28,20,49,19.40
2014,08,28,20,50,19.40
2014,08,28,20,51,19.40
2014,08,28,20,52,19.40
2014,08,28,20,53,19.40
2014,08,28,20,54,19.40
2014,08,28,20,55,19.40
2014,08,28,20,56,19.30
2014,08,28,20,57,19.30
2014,08,28,20,58,19.30
2014,08,28,20,59,19.30
2014,08,28,21,00,19.30
2014,08,28,21,01,19.30
2014,08,28,21,02,19.20
2014,08,28,21,03,19.20
2014,08,28,21,04,19.20
2014,08,28,21,05,19.20
2014,08,28,21,06,19.10
2014,08,28,21,07,19.10
2014,08,28,21,08,19.10
2014,08,28,21,09,19.10
2014,08,28,21,10,19.10
2014,08,28,21,11,19.10
2014,08,28,21,12,19.00
2014,08,28,21,13,19.00
2014,08,28,21,14,19.00
2014,08,28,21,15,18.90
2014,08,28,21,16,18.90
2014,08,28,21,17,18.90
2014,08,28,21,18,18.90
2014,08,28,21,19,18.80
2014,08,28,21,20,18.80
2014,08,28,21,21,18.80
2014,08,28,21,22,18.80
2014,08,28,21,23,18.80
2014,08,28,21,24,18.70
2014,08,28,21,25,18.70
2014,08,28,21,26,18.70
2014,08,28,21,27,18.70
2014,08,28,21,28,18.70
2014,08,28,21,29,18.70
2014,08,28,21,30,18.70
2014,08,28,21,31,18.80
2014,08,28,21,32,18.80
2014,08,28,21,33,18.80
2014,08,28,21,34,18.80
2014,08,28,21,35,18.80
2014,08,28,21,36,18.80
2014,08,28,21,37,18.80
2014,08,28,21,38,18.70
2014,08,28,21,39,18.70
2014,08,28,21,40,18.70
2014,08,28,21,41,18.70
2014,08,28,21,42,18.70
2014,08,28,21,43,18.70
2014,08,28,21,44,18.70
2014,08,28,21,45,18.70
2014,08,28,21,46,18.70
2014,08,28,21,47,18.70
2014,08,28,21,48,18.70
2014,08,28,21,49,18.70
2014,08,28,21,50,18.80
2014,08,28,21,51,18.80
2014,08,28,21,52,18.80
2014,08,28,21,53,18.80
2014,08,28,21,54,18.80
2014,08,28,21,55,18.80
2014,08,28,21,56,18.80
2014,08,28,21,57,18.80
2014,08,28,21,58,18.80
2014,08,28,21,59,18.80
2014,08,28,22,00,18.80
2014,08,28,22,01,18.80
2014,08,28,22,02,18.80
2014,08,28,22,03,18.80
2014,08,28,22,04,18.80
2014,08,28,22,05,18.80
2014,08,28,22,06,18.80
2014,08,28,22,07,18.80
2014,08,28,22,08,18.80
2014,08,28,22,09,18.80
2014,08,28,22,10,18.80
2014,08,28,22,11,18.80
2014,08,28,22,12,18.80
2014,08,28,22,13,18.80
2014,08,28,22,14,18.80
2014,08,28,22,15,18.80
2014,08,28,22,16,18.80
2014,08,28,22,17,18.70
2014,08,28,22,18,18.70
2014,08,28,22,19,18.70
2014,08,28,22,20,18.70
2014,08,28,22,21,18.70
2014,08,28,22,22,18.70
2014,08,28,22,23,18.70
2014,08,28,22,24,18.70
2014,08,28,22,25,18.60
2014,08,28,22,26,18.60
2014,08,28,22,27,18.60
2014,08,28,22,28,18.60
2014,08,28,22,29,18.60
2014,08,28,22,30,18.60
2014,08,28,22,31,18.60
2014,08,28,22,32,18.60
2014,08,28,22,33,18.60
2014,08,28,22,34,18.50
2014,08,28,22,35,18.50
2014,08,28,22,36,18.50
2014,08,28,22,37,18.50
2014,08,28,22,38,18.50
2014,08,28,22,39,18.50
2014,08,28,22,40,18.50
2014,08,28,22,41,18.50
2014,08,28,22,42,18.50
2014,08,28,22,43,18.40
2014,08,28,22,44,18.40
2014,08,28,22,45,18.40
2014,08,28,22,46,18.40
2014,08,28,22,47,18.40
2014,08,28,22,48,18.40
2014,08,28,22,49,18.40
2014,08,28,22,50,18.40
2014,08,28,22,51,18.30
2014,08,28,22,52,18.30
2014,08,28,22,53,18.30
2014,08,28,22,54,18.30
2014,08,28,22,55,18.30
2014,08,28,22,56,18.30
2014,08,28,22,57,18.20
2014,08,28,22,58,18.20
2014,08,28,22,59,18.20
2014,08,28,23,00,18.20
2014,08,28,23,01,18.10
2014,08,28,23,02,18.10
2014,08,28,23,03,18.10
2014,08,28,23,04,18.10
2014,08,28,23,05,18.10
2014,08,28,23,06,18.00
2014,08,28,23,07,18.00
2014,08,28,23,08,18.00
2014,08,28,23,09,17.90
2014,08,28,23,10,17.90
2014,08,28,23,11,17.90
2014,08,28,23,12,17.90
2014,08,28,23,13,17.80
2014,08,28,23,14,17.80
2014,08,28,23,15,17.80
2014,08,28,23,16,17.80
2014,08,28,23,17,17.80
2014,08,28,23,18,17.70
2014,08,28,23,19,17.70
2014,08,28,23,20,17.70
2014,08,28,23,21,17.70
2014,08,28,23,22,17.60
2014,08,28,23,23,17.60
2014,08,28,23,24,17.60
2014,08,28,23,25,17.60
2014,08,28,23,26,17.60
2014,08,28,23,27,17.50
2014,08,28,23,28,17.50
2014,08,28,23,29,17.50
2014,08,28,23,30,17.40
2014,08,28,23,31,17.40
2014,08,28,23,32,17.40
2014,08,28,23,33,17.30
2014,08,28,23,34,17.30
2014,08,28,23,35,17.30
2014,08,28,23,36,17.30
2014,08,28,23,37,17.30
2014,08,28,23,38,17.20
2014,08,28,23,39,17.20
2014,08,28,23,40,17.20
2014,08,28,23,41,17.20
2014,08,28,23,42,17.10
2014,08,28,23,43,17.10
2014,08,28,23,44,17.10
2014,08,28,23,45,17.10
2014,08,28,23,46,17.00
2014,08,28,23,47,17.00
2014,08,28,23,48,16.90
2014,08,28,23,49,16.90
2014,08,28,23,50,16.90
2014,08,28,23,51,16.90
2014,08,28,23,52,16.90
2014,08,28,23,53,16.80
2014,08,28,23,54,16.80
2014,08,28,23,55,16.80
2014,08,28,23,56,16.80
2014,08,28,23,57,16.70
2014,08,28,23,58,16.70
2014,08,28,23,59,16.70
